Lid_Strength_Index
-1 -1 -1 -0 -0 1 1 2 2 2 2 1 1 1 1 1 1 1 0 -1 -2 -1 -2 -2 -1 -1 -0 -0 -0 -0 -0 0 -0 1 0 1 1 1 1 1 1 1 1
-1 -1 -0 -1 0 1 2 2 1 2 2 1 2 1 2 1 1 1 1 1 0 -0 -1 -1 -1 -1 -1 -1 -0 0 0 1 0 1 1 1 1 1 1 1 1 1 1
-1 -1 0 -0 1 2 2 1 2 3 2 2 3 3 3 3 3 3 2 2 1 1 0 -0 -1 -1 -1 -0 0 0 0 1 0 -0 1 1 1 1 2 2 2 1 1
-1 -1 1 0 2 2 1 1 2 4 4 4 4 4 4 3 3 3 3 3 3 2 2 1 0 -1 -1 -1 -0 0 0 0 1 1 1 1 1 1 1 2 2 2 2
-1 0 0 1 2 2 2 2 2 4 4 4 4 4 4 4 4 4 4 4 4 3 3 3 2 1 -0 -0 -0 -0 -0 1 1 1 1 1 2 2 2 2 2 2 2
-1 0 0 2 2 2 3 3 2 3 3 4 5 5 4 4 4 4 4 4 4 4 4 3 2 2 2 0 0 -0 -0 0 1 1 1 2 2 2 2 2 3 3 2
-1 0 2 3 2 3 4 4 3 4 4 4 5 5 5 4 4 4 4 4 5 5 5 5 4 2 2 2 1 1 1 1 1 1 2 2 2 3 3 3 3 3 2
-1 -1 3 4 3 3 4 5 5 4 4 4 5 5 7 6 5 4 4 4 4 5 5 5 4 3 2 2 2 2 2 2 2 2 2 2 2 3 3 3 3 3 3
-0 -1 2 4 3 4 5 5 5 4 5 4 3 4 6 7 6 5 5 5 4 4 5 5 5 5 4 3 3 3 4 3 3 2 3 3 4 4 3 3 3 3 3
0 -0 2 4 4 4 5 5 5 3 4 4 3 3 3 4 6 7 6 5 5 5 5 5 5 5 5 4 4 4 5 4 4 4 4 4 4 4 4 4 4 3 3
0 0 2 3 5 4 4 5 4 3 3 3 4 3 4 4 4 5 7 7 6 5 5 5 5 5 5 4 4 5 6 5 5 5 4 4 4 4 4 4 4 4 4
0 0 2 2 3 4 5 5 4 3 2 2 3 2 3 4 4 4 5 6 6 6 5 5 5 5 5 5 6 6 6 6 6 5 5 5 5 5 5 5 4 4 4
1 1 2 2 3 4 4 4 3 2 2 2 2 2 2 2 3 3 4 6 6 6 6 5 5 5 6 5 5 6 6 6 6 6 6 6 6 6 6 6 5 5 5
1 2 2 2 3 3 4 4 4 3 1 1 2 2 1 2 2 3 3 5 6 6 6 5 5 5 5 5 5 6 6 7 7 7 7 7 7 7 7 7 7 6 6
0 1 1 2 3 4 4 4 4 3 2 1 1 1 2 1 1 2 2 3 3 5 6 5 6 5 5 5 5 5 6 7 7 7 7 7 7 8 8 8 8 8 7
-0 1 1 1 2 3 4 4 3 2 2 1 2 2 2 2 2 2 2 2 3 3 4 4 5 5 5 6 5 5 6 7 7 7 8 7 7 8 8 9 9 9 8
-0 1 1 2 2 3 4 4 3 3 3 2 2 2 2 2 2 2 2 3 3 3 4 6 5 5 5 5 6 5 5 6 6 8 8 8 8 8 9 9 9 9 9
1 1 1 1 2 3 4 4 4 4 3 3 3 2 2 3 2 2 3 3 3 3 4 5 6 6 6 5 5 5 6 6 6 7 8 8 8 8 8 9 9 9 9
2 0 1 1 2 3 4 4 3 3 3 3 3 3 3 2 3 3 3 3 4 5 4 5 6 6 6 6 6 5 5 6 6 7 8 7 8 8 8 8 9 9 9
2 1 1 2 2 3 3 4 3 3 3 3 2 3 2 3 3 3 4 3 4 5 5 5 5 6 6 6 6 7 7 6 6 6 7 7 7 7 8 8 8 8 8
2 2 2 2 1 3 3 4 3 2 2 3 3 2 1 3 6 4 4 3 4 5 6 6 6 6 6 7 7 6 7 6 6 6 6 5 6 6 6 7 7 8 8
3 2 3 3 3 3 8 9 5 2 3 3 3 2 2 6 7 9 10 9 6 5 6 6 5 6 6 6 6 6 7 7 8 5 6 6 5 6 5 5 7 8 8
4 3 3 3 2 2 10 10 9 2 3 2 2 2 3 4 6 5 10 11 11 11 9 5 6 6 5 5 5 6 6 7 7 6 6 7 5 6 5 6 8 8 8
5 4 4 3 3 2 10 10 9 2 2 2 2 2 2 3 5 5 5 6 7 7 7 7 5 5 4 4 5 5 5 6 6 7 7 8 6 7 5 5 8 8 9
6 5 5 3 3 3 11 10 8 2 2 3 3 3 3 2 7 9 6 6 7 7 10 11 11 11 10 9 7 6 7 7 8 7 7 7 7 8 7 6 5 9 9
6 6 6 4 6 3 13 11 7 3 3 4 4 4 10 5 11 12 6 6 7 7 8 8 8 10 10 9 11 5 5 7 7 8 7 9 9 9 10 7 8 7 7